Location: Palomar Mountain Lodge
(33.3110°N, 116.8495°W)
Time: 06:12:43
(UTC-07:00)

Cosmos 1980 Rocket - Pass Details

Date: 19 May 2017
Orbit: 828 x 851 km, 71.0° (Epoch: 28 May)

Event Time Altitude Azimuth Distance (km) Brightness Sun altitude
Rises 23:19:32 0° 359° (N) 3,406 6.3 -33.0°
Reaches altitude 10° 23:23:13 10° 23° (NNE) 2,462 5.1 -33.3°
Enters shadow 23:26:00 15° 53° (NE) 2,144 4.4 -33.5°
